Regional Weather Roundup
Issued by NWS Green Bay, WI

Home | Current Version | Previous Version | Text Only | Print | Product List | Glossary On
Versions: 1 2 3 4 5 6 7 8 9 10 11 12 13 14 15 16 17 18 19 20 21 22 23 24 25 26 27 28 29 30 31 32 33 34 35 36 37 38 39 40 41 42 43 44 45 46 47 48 49 50
000
ASUS43 KGRB 130800
RWRGRB

NORTH-CENTRAL AND NORTHEAST WISCONSIN REGIONAL WEATHER ROUNDUP
NATIONAL WEATHER SERVICE GREEN BAY WI
200 AM CST WED DEC 13 2017

WIZ005-009-010>012-018-019-130900-
NORTH CENTRAL WISCONSIN

CITY           SKY/WX    TMP DP  RH WIND       PRES   REMARKS
IRONWOOD       FLURRIES  12   7  80 SE12      29.58F WCI  -2
MANITOWISH WTR NOT AVBL
ARBOR VITAE    NOT AVBL
EAGLE RIVER    NOT AVBL
LAND O LAKES   NOT AVBL
RHINELANDER    LGT SNOW  11   8  88 SE9       29.62F FOG     WCI  -2
PHILLIPS       NOT AVBL
ANTIGO         NOT AVBL
TOMAHAWK       NOT AVBL
MERRILL        NOT AVBL
$$

WIZ013-073-130900-
NORTHEAST WISCONSIN

CITY           SKY/WX    TMP DP  RH WIND       PRES   REMARKS
IRON MOUNTAIN  CLOUDY    11   3  70 SE5       29.70F WCI   3
MARINETTE      CLOUDY    13   8  81 CALM      29.79F
$$

WIZ017-030-035>037-045-130900-
CENTRAL WISCONSIN

CITY           SKY/WX    TMP DP  RH WIND       PRES   REMARKS
MEDFORD        NOT AVBL
WAUSAU         CLOUDY    13  10  88 SE10      29.64F WCI   0
MOSINEE        NOT AVBL
MARSHFIELD     CLOUDY    15  12  88 SE9       29.62F WCI   3
WISC RAPIDS    CLOUDY    16  11  80 SE7       29.68F WCI   6
STEVENS POINT  NOT AVBL
WAUPACA        NOT AVBL
SHAWANO        NOT AVBL
CLINTONVILLE   NOT AVBL
WAUTOMA        CLOUDY    17  11  77 SE5       29.72F WCI  10
$$

WIZ038-039-048-051-130900-
FOX VALLEY

CITY           SKY/WX    TMP DP  RH WIND       PRES   REMARKS
NWS GREEN BAY  CLOUDY    16   4  59 S5        29.77F WCI   9
APPLETON       NOT AVBL
OSHKOSH        CLOUDY    16  10  77 SE8       29.74F WCI   5
FOND DU LAC    CLOUDY    18   8  65 SE9       29.75F WCI   7
$$

WIZ022-050-052-130900-
EAST CENTRAL WISCONSIN

CITY           SKY/WX    TMP DP  RH WIND       PRES   REMARKS
EPHRAIM        NOT AVBL
WASHINGTON ISL NOT AVBL
STURGEON BAY   CLOUDY    15   8  73 S5        29.78F WCI   8
MANITOWOC      FLURRIES  16   6  65 SE5       29.79F WCI   9
SHEBOYGAN      LGT SNOW  16   9  74 S7        29.79F WCI   6
$$

LMZ563-521-522-541>543-130900-
LAKESHORE

STATION/POSITION TIME  TEMP    WIND        PRES    VSBY  WAVE
                       AIR SEA DIR/SP/G                  HT/PER
                 (UTC) (F)     (DEG/KT/KT) (MB)    (MI)  (FT/S)
SHEBOYGAN LKSHOR 0700   17     210/  5/  7 1010.9F
KEWAUNEE LKSHORE 0730   15     240/  3/  5 1008.5F
NORTHPORT PIER   0741   15      CALM  /  1 1009.1F
MENOMINEE LKSHOR 0730   14      CALM  /  2 1008.6F
$$



USA.gov is the U.S. government's official web portal to all federal, state and local government web resources and services.